User: anonymous   Login
Location: Unspecified
(0.0000°N, 0.0000°E)
Time: 19:55:00
(UTC+00:00)
Language:

LEMUR 2 KANE - Orbit

View from above orbital plane
View from above orbital plane
View from above satellite
View from above satellite

Ground track
Ground track

The orbit data is extracted from the following two-line orbital elements,

1 41489U 98067JK  17096.95849574 +.05053431 +12134-4 +92051-3 0  9996
2 41489 051.6245 353.7306 0010181 253.9379 106.0523 16.31442564050072
Epoch (UTC): 06 April 2017 23:00:14
Eccentricity: 0.0010181
inclination: 51.6245°
perigee height: 182 km
apogee height: 195 km
right ascension of ascending node: 353.7306°
argument of perigee: 253.9379°
revolutions per day: 16.31442564
mean anomaly at epoch: 106.0523°
orbit number at epoch: 5007

The dashed part of the orbit path shows where the satellite is in the earth's shadow,  

DLR